Location: Allmannshofen
(48.6125°N, 10.8053°E)
Time: 15:26:56
(UTC+00:00)

Daily predictions for brighter satellites

Satellite Brightness Start Highest point End
(mag) Time Altitude Azimuth Time Altitude Azimuth Time Altitude Azimuth
Cosmos 2026 Rocket 4.2 15:46:19 10° N 15:52:15 49° ENE 15:58:05 10° SSE
NOSS 2-2 (D) 4.3 15:47:53 10° NW 15:52:57 80° NE 16:00:07 10° SE
Cosmos 1634 Rocket 4.5 15:49:16 10° SSE 15:55:08 42° E 16:01:01 10° NNE
H-2A R/B 2.9 15:55:33 10° ESE 15:59:39 25° ENE 16:03:41 10° N
Cosmos 2369 3.7 15:53:57 10° NNW 15:59:43 83° ENE 16:05:27 10° SSE
Cosmos 1812 3.9 15:59:09 10° SE 16:02:12 23° E 16:05:15 10° NE
ATLAS CENTAUR R/B 3.8 16:01:27 10° NW 16:03:48 14° NNW 16:06:13 10° NNE
Cosmos 2221 3.6 16:00:31 10° SSW 16:04:39 47° WNW 16:08:51 10° N
Okean O Rocket 3.2 16:02:14 10° E 16:04:46 15° ENE 16:07:17 10° NNE
SL-16 R/B 3.1 16:00:04 10° NNW 16:04:54 28° NE 16:09:43 10° ESE
USA 308 3.4 16:00:51 10° WNW 16:04:55 42° N 16:08:59 10° E
MOS 1 Rocket 4.2 16:00:37 10° N 16:05:24 51° WNW 16:09:52 10° SW
CZ-2C R/B 2.8 16:01:32 10° SSE 16:06:22 81° ENE 16:11:08 10° NNW
Cosmos 2082 Rocket 2.5 16:03:10 10° S 16:08:39 52° ESE 16:14:08 10° NE
Sich 1 3.0 16:04:42 10° N 16:08:58 59° ENE 16:13:14 10° SSE
Cosmos 1500 Rocket 4.0 16:04:36 10° NNW 16:09:01 67° W 16:13:21 10° S
Cosmos 540 Rocket 3.4 16:04:31 10° SSW 16:09:36 75° ESE 16:14:44 10° NNE
ARGOS 4.2 16:06:48 10° ESE 16:10:51 22° ENE 16:14:54 10° N
FengYun 1-2 T 4.2 16:08:37 10° SSE 16:14:08 71° ENE 16:19:40 10° N
COSMOS 2455 2.9 16:09:14 10° SSW 16:15:12 71° ESE 16:21:14 10° NE
SMAP 3.1 16:12:18 10° SSE 16:16:51 58° ENE 16:21:26 10° N
NOAA 6 4.0 16:13:18 10° SSE 16:18:21 61° ENE 16:23:25 10° N
Cosmos 1805 Rocket 3.6 16:17:09 10° NNW 16:21:30 82° W 16:25:50 10° S
Cosmos 1933 3.4 16:17:49 10° S 16:21:52 85° WNW 16:25:55 10° N
Cosmos 1833 Rocket 3.1 16:16:24 10° SW 16:21:59 66° WNW 16:27:38 10° NNE
Cosmos 2278 3.7 16:16:28 10° NNW 16:22:12 72° ENE 16:27:52 10° SE
Cosmos 2333 Rocket 3.9 16:20:38 10° N 16:23:51 15° NNE 16:26:02 12° ENE
Cosmos 1602 4.0 16:20:32 10° NNW 16:24:23 71° W 16:28:15 10° S
CZ-4B DEB 4.2 16:22:08 10° SSE 16:27:31 58° ENE 16:32:54 10° N
USA 305 3.2 16:25:17 10° WNW 16:29:25 50° NNE 16:32:51 14° E
CZ-2C R/B 3.6 16:25:51 10° NE 16:30:02 24° E 16:34:12 10° SE
Cosmos 2219 Rocket 3.9 16:29:06 10° N 16:31:56 14° NNE 16:33:20 13° NE
CZ-4B R/B 3.4 16:29:04 10° S 16:32:57 58° W 16:36:40 10° NNW
Cosmos 1500 3.2 16:30:55 10° N 16:34:41 82° W 16:38:23 10° S
Meteor 1-14 Rocket 4.3 16:29:06 10° N 16:34:57 67° ENE 16:40:52 10° SSE
Cosmos 44 Rocket 3.2 16:31:29 10° NW 16:36:26 71° NE 16:41:11 10° SE
Meteor 2-16 Rocket 4.4 16:33:04 10° N 16:39:10 65° ENE 16:45:15 10° SSE
COSMOS 2406 3.7 16:35:57 10° SW 16:41:38 61° WNW 16:47:20 10° NNE
Cosmos 1814 Rocket 4.0 16:37:18 10° S 16:42:28 69° ESE 16:47:37 10° NNE
Cosmos 921 Rocket 3.7 16:39:58 10° SSE 16:43:43 32° E 16:45:57 19° NE
Cosmos 1570 Rocket 4.0 16:44:09 10° S 16:49:20 68° ESE 16:54:14 12° NNE
MOS 1-B Rocket 4.3 16:45:34 10° NNE 16:51:29 53° E 16:58:16 10° S
CZ-4B R/B 3.2 16:48:24 10° SE 16:53:36 53° ENE 16:58:46 10° N
Cosmos 2298 Rocket 4.0 16:49:46 10° NNW 16:55:04 61° ENE 17:00:20 10° SE
USA 267 3.3 16:50:26 18° ENE 16:55:32 75° SE 17:02:04 10° SW
CZ-2D R/B 3.1 16:52:06 10° SSE 16:55:53 76° ENE 16:59:43 10° N
MOS 1-B 4.3 16:52:42 10° SSE 16:58:27 76° ENE 17:04:16 10° NNW
Cosmos 1939 Rocket 4.0 16:54:40 10° S 16:58:38 48° W 17:02:35 10° NNW
ATLAS CENTAUR R/B 3.0 16:50:11 10° WSW 16:59:02 62° NW 17:01:31 23° NE
COSMO-SKYMED 1 3.0 16:59:10 22° NE 17:01:26 38° E 17:05:29 10° SSE
Cosmos 1633 Rocket 3.0 16:57:14 10° N 17:01:39 87° WSW 17:06:02 10° S
Cosmos 1151 Rocket 3.0 16:57:23 10° S 17:01:44 90° ENE 17:06:08 10° N
USA 306 2.9 16:57:35 10° WNW 17:01:49 64° NNE 17:03:51 29° E
Meteor 1-27 Rocket 4.4 16:57:17 10° SSE 17:02:00 30° E 17:04:01 23° NE
Cosmos 1666 2.9 16:59:40 10° NNW 17:03:23 69° W 17:07:04 10° S
Cosmos 1782 4.0 17:00:06 10° SSW 17:03:54 44° WNW 17:07:45 10° N
APEX 3.5 17:00:52 10° S 17:04:13 34° ESE 17:04:23 34° ESE
Landsat 5 4.4 17:05:03 27° ESE 17:05:03 27° ESE 17:08:03 10° SSE
Meteor 2-6 Rocket 4.1 16:59:08 10° S 17:04:47 67° E 17:10:18 10° NNE
Cosmos 2360 Rocket 2.8 17:00:51 10° NNW 17:06:02 35° NE 17:08:17 26° E
SJ-11-01 4.4 17:01:51 10° SE 17:06:27 53° ENE 17:11:03 10° N
ISS -0.7 17:04:47 10° W 17:06:56 16° SW 17:09:04 10° S
PAYLOAD B 4.3 17:02:55 10° SSE 17:08:32 87° WSW 17:14:10 10° NNW
Cosmos 1900 4.2 17:04:06 10° SSW 17:08:58 85° ESE 17:11:53 25° NE
Cosmos 2237 4.4 17:03:53 10° NNW 17:09:24 46° NE 17:13:44 16° ESE
YAOGAN 1 4.1 17:11:21 20° NNE 17:11:21 20° NNE 17:13:07 10° N
Cosmos 1818 3.9 17:06:28 10° NW 17:11:56 68° WSW 17:17:20 10° SSE
CZ-2C R/B 3.8 17:15:18 10° SSW 17:17:07 12° S 17:18:55 10° SSE
Cosmos 2279 Rocket 4.1 17:11:36 10° SSW 17:17:49 80° W 17:24:04 10° N
ATLAS 5 CENTAUR R/B 1.8 17:11:56 10° NW 17:18:51 68° NE 17:19:39 47° E
Cosmos 1536 4.5 17:15:05 10° N 17:16:30 20° NNE 17:16:30 20° NNE
Meteor 2-15 4.3 17:14:05 10° S 17:20:08 71° E 17:26:13 10° NNE
Cosmos 2266 Rocket 4.0 17:14:20 10° N 17:20:45 71° ENE 17:27:09 10° SSE
ERBS 4.1 17:18:55 10° NW 17:20:46 20° N 17:20:46 20° N
USA 307 2.8 17:18:09 10° WNW 17:22:25 74° NNE 17:23:33 47° E
CZ-4C R/B 3.8 17:15:54 10° NW 17:22:57 52° WSW 17:31:04 10° SSE
SL-08 RB Rocket 3.7 17:20:37 10° SSE 17:25:07 54° ENE 17:29:36 10° N
Lacrosse 5 rocket 2.3 17:21:35 10° WNW 17:25:21 44° SW 17:28:57 12° SSE
SKYMED 3 4.5 17:23:34 30° NNE 17:25:39 68° ESE 17:29:58 10° S
NOSS 3-4 (A) 4.4 17:20:45 10° NW 17:26:53 37° NNE 17:28:52 31° ENE
NOSS 3-4 (C) 4.4 17:20:52 10° NW 17:26:58 36° NNE 17:28:56 31° ENE
Cosmos 2208 Rocket 4.2 17:23:17 10° SSW 17:28:42 74° WNW 17:32:51 18° NNE
Cosmos 1933 Rocket 3.4 17:24:26 10° N 17:28:47 68° E 17:33:05 10° SSE
Cosmos 2322 Rocket 2.1 17:23:13 10° NNW 17:28:56 72° ENE 17:34:38 10° SE
ATLAS 2AS CENTAUR R/B 3.8 17:23:00 10° NW 17:29:18 28° NNE 17:31:18 24° NE
COSMOS 2428 4.1 17:25:19 10° N 17:28:44 21° NNE 17:28:44 21° NNE
USA 234 3.5 17:23:28 10° SE 17:30:00 71° SW 17:36:33 10° WNW
Cosmos 2150 Rocket 4.1 17:25:27 10° NNW 17:30:39 77° WSW 17:35:53 10° SSE
Cosmos 1980 Rocket 4.4 17:27:02 10° NW 17:31:40 27° WSW 17:36:16 10° SSW
Cosmos 1328 Rocket 4.0 17:27:26 10° SSW 17:31:50 64° WNW 17:36:01 11° N
Cosmos 1470 Rocket 3.9 17:30:21 10° NNW 17:34:48 68° W 17:39:15 10° S
Cosmos 1544 3.1 17:31:18 10° NNW 17:34:56 78° W 17:38:33 10° S
Cosmos 1125 Rocket 3.7 17:31:37 10° NNW 17:36:52 74° WSW 17:42:08 10° SSE
Cosmos 1867 3.8 17:32:36 10° SSW 17:37:50 48° ESE 17:38:28 46° E
NOSS 3-3 (A) 4.3 17:32:55 10° S 17:38:06 38° ESE 17:38:22 38° ESE
NOSS 3-3 (C) 4.4 17:33:02 10° S 17:38:12 38° ESE 17:38:27 37° ESE
H-2A R/B 2.8 17:33:50 10° S 17:38:49 51° W 17:43:42 10° NNW
X-37B 2.6 17:36:25 10° SW 17:37:49 20° SSW 17:37:49 20° SSW
DEBRIS 4.4 17:37:05 10° S 17:38:35 23° SSE 17:38:35 23° SSE
Okean O Rocket 1.7 17:36:04 10° S 17:40:32 79° WSW 17:45:01 10° NNW
Meteor 1-10 Rocket 4.2 17:36:10 10° SSW 17:41:55 86° W 17:47:11 12° N
Meteor 1-11 Rocket 3.7 17:36:19 10° NNW 17:42:00 88° W 17:47:47 10° S
GEOS 3 Rocket 3.9 17:41:55 45° NE 17:42:10 45° NE 17:47:06 10° NNW
USA 32 3.9 17:38:40 10° S 17:43:51 68° E 17:46:22 31° NNE
ATLAS CENTAUR R/B 4.0 17:43:05 10° NNW 17:44:13 11° N 17:44:13 11° N
USA 308 2.7 17:40:50 10° WNW 17:45:07 86° SSW 17:45:21 79° SE
SL-16 R/B 2.5 17:43:51 10° NNW 17:49:29 65° WSW 17:55:05 10° SSE
SKYMED 2 3.7 17:47:48 34° N 17:49:36 71° WNW 17:53:55 10° SSW
ARGOS 3.4 17:45:15 10° S 17:50:37 68° WSW 17:56:02 10° NNW
Cosmos 2237 Rocket 4.3 17:47:55 10° N 17:49:04 13° N 17:49:04 13° N
Cosmos 2082 Rocket 3.7 17:47:55 10° WSW 17:52:59 33° NW 17:56:56 15° N
Cosmos 1241 Rocket 4.4 17:55:04 10° SSW 18:01:21 64° ESE 18:01:58 61° E
COSMOS 2455 4.3 17:56:22 10° W 18:01:40 31° NW 18:04:54 19° N
Feng Yun 1-1 Rocket 4.4 17:59:33 10° SSE 18:05:28 80° WSW 18:11:20 10° NNW
USA 305 3.6 18:05:12 10° WNW 18:08:52 52° WSW 18:08:52 52° WSW
Cosmos 2333 Rocket 2.8 18:03:54 10° NNW 18:08:05 42° N 18:08:05 42° N
CZ-2C R/B 3.3 18:06:50 17° N 18:10:39 52° WNW 18:15:38 10° SW
Cosmos 2219 Rocket 3.3 18:11:51 10° NNW 18:15:04 31° N 18:15:04 31° N
Aureole 3 Rocket 3.9 18:13:31 10° SSW 18:18:12 70° WNW 18:24:54 10° N
Nadezhda 2 Rocket 4.4 18:17:49 10° N 18:24:18 83° E 18:24:24 83° ESE
USA 267 3.6 18:37:47 52° N 18:38:25 54° NNW 18:44:44 10° W
Cosmos 2360 Rocket 3.0 18:44:47 10° NW 18:50:08 48° WSW 18:50:08 48° WSW
Cosmos 2322 Rocket 4.4 19:08:16 10° NW 19:12:24 21° W 19:16:31 10° SSW
NOSS 3-4 (A) 4.4 19:11:32 10° NW 19:16:19 50° NW 19:16:19 50° NW
NOSS 3-4 (C) 4.4 19:11:38 10° NW 19:16:24 49° NW 19:16:24 49° NW
ATLAS 2AS CENTAUR R/B 4.0 19:14:35 10° NW 19:18:44 34° NNW 19:18:44 34° NNW
